• In Deutschland
  • Länderverzeichnis
  • Für 7 Tage
  • Wassertemperatur
  • Satellitenkarten
  • Wetterkarte
  • Widgets
  • user-avatar
    Anmelden

    Stündliche Wetter Saurimo

    Heute, 29 Juni, Donnerstag

    Zeit Temperatur Niederschläge Wind Luftdruck Luftfeuchtigkeit
    00:00 +16°C° 0 mm 2 m/S 671 mmHg 45%
    01:00 +15°C° 0 mm 2 m/S 671 mmHg 46%
    02:00 +15°C° 0 mm 2 m/S 671 mmHg 48%
    03:00 +14°C° 0 mm 2 m/S 671 mmHg 49%
    04:00 +14°C° 0 mm 2 m/S 671 mmHg 50%
    05:00 +14°C° 0 mm 2 m/S 671 mmHg 51%
    06:00 +15°C° 0 mm 2 m/S 671 mmHg 51%
    07:00 +14°C° 0 mm 3 m/S 672 mmHg 51%
    08:00 +19°C° 0 mm 3 m/S 673 mmHg 44%
    09:00 +22°C° 0 mm 3 m/S 673 mmHg 37%
    10:00 +27°C° 0 mm 4 m/S 674 mmHg 30%
    11:00 +29°C° 0 mm 3 m/S 674 mmHg 26%
    12:00 +30°C° 0 mm 2 m/S 674 mmHg 22%
    13:00 +32°C° 0 mm 1 m/S 674 mmHg 18%
    14:00 +32°C° 0 mm 1 m/S 673 mmHg 19%
    15:00 +31°C° 0 mm 1 m/S 672 mmHg 19%
    16:00 +31°C° 0 mm 1 m/S 672 mmHg 19%
    17:00 +27°C° 0 mm 1 m/S 671 mmHg 26%
    18:00 +23°C° 0 mm 1 m/S 671 mmHg 33%
    19:00 +19°C° 0 mm 1 m/S 670 mmHg 39%
    20:00 +19°C° 0 mm 1 m/S 671 mmHg 39%
    21:00 +18°C° 0 mm 2 m/S 671 mmHg 39%
    22:00 +18°C° 0 mm 2 m/S 672 mmHg 39%
    23:00 +17°C° 0 mm 2 m/S 672 mmHg 41%

    Morgen, 30 Juni, Freitag

    Zeit Temperatur Niederschläge Wind Luftdruck Luftfeuchtigkeit
    00:00 +17°C° 0 mm 2 m/S 671 mmHg 43%
    01:00 +16°C° 0 mm 2 m/S 671 mmHg 46%
    02:00 +16°C° 0 mm 2 m/S 671 mmHg 47%
    03:00 +16°C° 0 mm 2 m/S 671 mmHg 48%
    04:00 +15°C° 0 mm 2 m/S 671 mmHg 49%
    05:00 +16°C° 0 mm 2 m/S 671 mmHg 48%
    06:00 +16°C° 0 mm 3 m/S 672 mmHg 48%
    07:00 +17°C° 0 mm 3 m/S 673 mmHg 47%
    08:00 +20°C° 0 mm 3 m/S 673 mmHg 41%
    09:00 +25°C° 0 mm 3 m/S 674 mmHg 35%
    10:00 +28°C° 0 mm 4 m/S 675 mmHg 29%
    11:00 +30°C° 0 mm 3 m/S 674 mmHg 26%
    12:00 +31°C° 0 mm 2 m/S 674 mmHg 22%
    13:00 +34°C° 0 mm 2 m/S 674 mmHg 19%
    14:00 +32°C° 0 mm 2 m/S 673 mmHg 19%
    15:00 +32°C° 0 mm 1 m/S 672 mmHg 20%
    16:00 +31°C° 0 mm 1 m/S 672 mmHg 20%
    17:00 +28°C° 0 mm 2 m/S 671 mmHg 26%
    18:00 +25°C° 0 mm 2 m/S 671 mmHg 31%
    19:00 +21°C° 0 mm 2 m/S 671 mmHg 37%
    20:00 +20°C° 0 mm 2 m/S 671 mmHg 38%
    21:00 +20°C° 0 mm 2 m/S 672 mmHg 40%
    22:00 +19°C° 0 mm 2 m/S 672 mmHg 41%
    23:00 +19°C° 0 mm 2 m/S 672 mmHg 42%

    übermorgen, 1 Juli, Samstag

    Zeit Temperatur Niederschläge Wind Luftdruck Luftfeuchtigkeit
    00:00 +18°C° 0 mm 2 m/S 672 mmHg 43%
    01:00 +18°C° 0 mm 2 m/S 671 mmHg 44%
    02:00 +17°C° 0 mm 2 m/S 671 mmHg 45%
    03:00 +17°C° 0 mm 2 m/S 671 mmHg 46%
    04:00 +17°C° 0 mm 2 m/S 671 mmHg 47%
    05:00 +17°C° 0 mm 3 m/S 671 mmHg 48%
    06:00 +17°C° 0 mm 3 m/S 672 mmHg 49%
    07:00 +17°C° 0 mm 3 m/S 672 mmHg 49%
    08:00 +20°C° 0 mm 3 m/S 673 mmHg 42%
    09:00 +25°C° 0 mm 4 m/S 674 mmHg 35%
    10:00 +28°C° 0 mm 4 m/S 675 mmHg 28%
    11:00 +29°C° 0 mm 4 m/S 674 mmHg 26%
    12:00 +30°C° 0 mm 3 m/S 673 mmHg 23%
    13:00 +33°C° 0 mm 3 m/S 673 mmHg 21%
    14:00 +31°C° 0 mm 3 m/S 672 mmHg 21%
    15:00 +31°C° 0 mm 3 m/S 672 mmHg 21%
    16:00 +31°C° 0 mm 2 m/S 671 mmHg 22%
    17:00 +28°C° 0 mm 2 m/S 671 mmHg 27%
    18:00 +25°C° 0 mm 2 m/S 671 mmHg 33%
    19:00 +20°C° 0 mm 2 m/S 671 mmHg 38%
    20:00 +20°C° 0 mm 2 m/S 671 mmHg 40%
    21:00 +19°C° 0 mm 2 m/S 672 mmHg 41%
    22:00 +18°C° 0 mm 2 m/S 672 mmHg 43%
    23:00 +18°C° 0 mm 2 m/S 672 mmHg 44%

    2 Juli, Sonntag

    Zeit Temperatur Niederschläge Wind Luftdruck Luftfeuchtigkeit
    00:00 +17°C° 0 mm 2 m/S 671 mmHg 46%
    01:00 +16°C° 0 mm 2 m/S 671 mmHg 47%
    02:00 +16°C° 0 mm 2 m/S 671 mmHg 49%
    03:00 +16°C° 0 mm 2 m/S 670 mmHg 50%
    04:00 +15°C° 0 mm 2 m/S 670 mmHg 52%
    05:00 +16°C° 0 mm 2 m/S 671 mmHg 50%
    06:00 +16°C° 0 mm 3 m/S 671 mmHg 49%
    07:00 +17°C° 0 mm 3 m/S 672 mmHg 48%
    08:00 +20°C° 0 mm 3 m/S 673 mmHg 40%
    09:00 +24°C° 0 mm 3 m/S 673 mmHg 31%
    10:00 +28°C° 0 mm 4 m/S 674 mmHg 23%
    11:00 +29°C° 0 mm 3 m/S 674 mmHg 21%
    12:00 +30°C° 0 mm 3 m/S 673 mmHg 18%
    13:00 +32°C° 0 mm 2 m/S 672 mmHg 16%
    14:00 +31°C° 0 mm 2 m/S 672 mmHg 16%
    15:00 +31°C° 0 mm 2 m/S 671 mmHg 16%
    16:00 +31°C° 0 mm 2 m/S 671 mmHg 16%
    17:00 +27°C° 0 mm 2 m/S 671 mmHg 20%
    18:00 +24°C° 0 mm 2 m/S 671 mmHg 24%
    19:00 +20°C° 0 mm 2 m/S 670 mmHg 28%
    20:00 +19°C° 0 mm 2 m/S 671 mmHg 30%
    21:00 +18°C° 0 mm 2 m/S 671 mmHg 31%
    22:00 +17°C° 0 mm 2 m/S 671 mmHg 33%
    23:00 +17°C° 0 mm 2 m/S 671 mmHg 35%

    3 Juli, Montag

    Zeit Temperatur Niederschläge Wind Luftdruck Luftfeuchtigkeit
    00:00 +16°C° 0 mm 2 m/S 671 mmHg 36%
    01:00 +16°C° 0 mm 2 m/S 671 mmHg 38%
    02:00 +15°C° 0 mm 2 m/S 670 mmHg 41%
    03:00 +15°C° 0 mm 2 m/S 670 mmHg 44%
    04:00 +14°C° 0 mm 2 m/S 670 mmHg 47%
    05:00 +15°C° 0 mm 2 m/S 671 mmHg 48%
    06:00 +15°C° 0 mm 2 m/S 671 mmHg 48%
    07:00 +16°C° 0 mm 2 m/S 672 mmHg 48%
    08:00 +19°C° 0 mm 3 m/S 672 mmHg 40%
    09:00 +24°C° 0 mm 3 m/S 673 mmHg 32%
    10:00 +28°C° 0 mm 3 m/S 674 mmHg 25%
    11:00 +29°C° 0 mm 3 m/S 673 mmHg 22%
    12:00 +31°C° 0 mm 2 m/S 673 mmHg 19%
    13:00 +34°C° 0 mm 2 m/S 672 mmHg 16%
    14:00 +32°C° 0 mm 2 m/S 672 mmHg 16%
    15:00 +32°C° 0 mm 1 m/S 671 mmHg 16%
    16:00 +31°C° 0 mm 1 m/S 671 mmHg 16%
    17:00 +28°C° 0 mm 1 m/S 671 mmHg 21%
    18:00 +24°C° 0 mm 2 m/S 671 mmHg 25%
    19:00 +20°C° 0 mm 2 m/S 670 mmHg 30%
    20:00 +19°C° 0 mm 2 m/S 671 mmHg 31%
    21:00 +18°C° 0 mm 2 m/S 671 mmHg 33%
    22:00 +18°C° 0 mm 2 m/S 671 mmHg 34%
    23:00 +17°C° 0 mm 2 m/S 671 mmHg 34%

    4 Juli, Dienstag

    Zeit Temperatur Niederschläge Wind Luftdruck Luftfeuchtigkeit
    00:00 +17°C° 0 mm 2 m/S 670 mmHg 35%
    01:00 +16°C° 0 mm 2 m/S 670 mmHg 35%
    02:00 +16°C° 0 mm 2 m/S 670 mmHg 37%
    03:00 +15°C° 0 mm 2 m/S 670 mmHg 38%
    04:00 +15°C° 0 mm 2 m/S 670 mmHg 39%
    05:00 +15°C° 0 mm 2 m/S 671 mmHg 39%
    06:00 +16°C° 0 mm 2 m/S 671 mmHg 40%
    07:00 +16°C° 0 mm 3 m/S 672 mmHg 41%
    08:00 +20°C° 0 mm 3 m/S 673 mmHg 34%
    09:00 +25°C° 0 mm 3 m/S 673 mmHg 28%
    10:00 +29°C° 0 mm 3 m/S 674 mmHg 21%
    11:00 +30°C° 0 mm 3 m/S 674 mmHg 19%
    12:00 +32°C° 0 mm 2 m/S 673 mmHg 16%
    13:00 +34°C° 0 mm 2 m/S 673 mmHg 14%
    14:00 +34°C° 0 mm 2 m/S 672 mmHg 14%
    15:00 +32°C° 0 mm 2 m/S 672 mmHg 14%
    16:00 +32°C° 0 mm 2 m/S 671 mmHg 15%
    17:00 +28°C° 0 mm 2 m/S 671 mmHg 19%
    18:00 +25°C° 0 mm 2 m/S 671 mmHg 23%
    19:00 +21°C° 0 mm 2 m/S 670 mmHg 28%
    20:00 +20°C° 0 mm 2 m/S 671 mmHg 29%
    21:00 +19°C° 0 mm 2 m/S 671 mmHg 30%
    22:00 +18°C° 0 mm 2 m/S 671 mmHg 31%
    23:00 +18°C° 0 mm 2 m/S 671 mmHg 32%
    Mehr zeigen